RH
74 74 86 85 97 98 99 98 97 96 99 92 88 93 92 83 82 88 98 97 96 100 99 99 95 89 85 82 89 89 100 100 100 96 92 99 100 100 98 100 98 90 83
78 88 100 97 100 100 100 100 94 88 82 83 78 79 94 100 98 99 96 98 99 99 99 99 99 95 96 88 93 93 92 100 100 100 99 96 100 100 98 94 88 86 82
93 100 99 100 99 94 97 96 89 88 84 84 83 90 93 91 99 99 98 99 100 100 100 99 97 94 97 98 97 94 99 100 100 100 92 84 87 90 88 86 80 82 81
92 94 99 99 95 96 92 82 90 88 99 100 96 94 87 95 95 99 99 99 98 100 100 100 100 89 92 99 97 99 98 100 100 100 99 94 96 90 90 81 78 74 74
89 91 99 100 96 94 90 96 99 98 98 99 100 99 89 92 94 96 97 100 100 100 100 100 99 100 96 98 94 100 100 100 100 100 100 96 98 95 79 75 75 72 67
85 99 100 100 98 97 92 99 92 98 98 99 100 98 98 100 99 100 98 100 100 99 99 99 93 97 98 100 99 100 100 99 99 98 100 98 98 98 74 74 68 56 21
85 97 100 99 99 99 100 98 88 98 98 100 98 95 98 99 100 100 97 100 96 100 94 91 96 100 99 100 100 97 99 100 100 98 90 89 83 66 63 49 23 17 17
81 94 100 99 99 99 100 96 99 99 99 98 100 100 100 100 100 96 94 95 99 100 98 99 100 100 100 100 99 100 99 94 87 63 56 57 41 22 18 18 18 18 18
81 97 99 98 100 100 100 100 100 98 99 99 100 100 100 100 100 100 94 100 100 100 100 100 100 100 97 92 72 64 56 51 34 23 18 17 17 18 19 32 36 33 22
89 99 99 99 99 100 99 100 100 99 98 100 100 100 100 100 99 100 100 100 99 97 99 85 49 32 28 28 30 27 17 17 18 20 21 23 40 55 43 27 26 28 30
90 100 100 100 99 100 99 100 100 99 100 99 100 100 100 100 99 99 99 98 92 85 85 63 36 23 20 21 20 19 21 26 35 40 45 61 46 30 31 34 35 36 37
96 100 100 100 99 100 99 100 100 99 100 100 99 99 99 98 89 79 67 64 63 63 45 24 21 22 22 23 28 43 53 45 52 59 44 39 38 35 37 38 39 41 42
99 100 100 100 99 100 100 99 100 96 82 71 70 72 63 58 56 56 47 34 24 18 20 22 23 25 33 46 50 41 53 66 56 42 39 38 36 39 41 45 47 50 54
94 100 100 99 98 100 99 97 86 58 38 32 34 38 36 34 33 29 25 23 23 25 25 25 35 57 64 53 48 69 62 47 40 41 40 39 41 45 49 51 51 51 59
94 95 93 92 98 99 81 81 76 51 37 35 30 28 27 26 25 27 27 27 27 28 28 55 68 59 52 63 60 53 43 38 39 43 45 47 48 51 52 48 42 43 63
97 85 99 98 92 93 91 68 52 38 32 30 28 28 28 27 27 31 47 46 32 32 38 56 63 59 60 64 55 39 34 36 38 40 42 44 44 41 38 36 37 40 55
100 96 100 99 90 68 58 43 32 35 32 44 55 69 69 64 63 62 56 49 45 42 50 79 94 90 70 43 34 33 34 35 37 38 40 40 40 39 39 38 41 45 49
100 99 90 83 77 76 76 66 62 54 44 62 76 78 93 92 93 91 90 84 64 64 66 68 49 38 36 34 34 35 36 38 39 40 41 43 44 45 43 42 46 52 56
100 95 59 55 46 41 41 41 54 66 54 44 50 66 74 78 73 66 53 42 38 37 38 40 41 41 41 40 40 40 41 42 45 48 46 46 48 50 46 48 55 64 74
96 94 67 61 55 49 50 74 78 63 52 74 73 71 66 47 33 30 30 31 33 35 37 38 38 38 37 36 37 37 35 36 39 45 51 49 51 54 54 62 78 95 95
100 74 53 48 48 74 77 81 84 67 49 37 33 34 31 27 26 29 35 37 38 38 38 39 41 42 42 41 39 39 41 47 60 95 84 64 83 96 95 86 90 90 97
93 63 55 46 63 70 87 79 71 76 54 40 29 24 23 26 27 31 35 40 42 42 40 37 36 43 68 86 93 95 94 86 70 61 60 61 65 73 84 97 99 99 100
81 65 45 40 50 75 92 91 92 84 52 41 32 27 27 28 30 35 39 40 39 37 43 64 83 76 59 55 56 58 61 65 68 71 76 81 84 85 85 87 83 78 84
75 60 52 48 60 86 92 92 72 58 48 39 31 30 32 34 35 36 36 41 67 82 74 58 54 52 46 46 46 49 52 54 56 59 62 66 70 74 78 77 81 83 87
84 72 61 53 70 80 75 84 94 48 40 35 34 36 37 37 42 63 79 72 53 50 45 44 48 52 55 56 58 60 62 64 66 68 70 72 76 83 90 89 91 92 92
96 76 56 60 75 76 89 97 82 41 38 39 40 41 56 70 66 52 47 44 49 54 56 56 55 54 56 59 63 68 71 74 77 84 96 96 91 92 95 94 93 94 93
Wind_Speed
21 20 19 18 14 13 14 16 19 21 22 22 23 25 26 27 28 30 29 28 29 30 31 29 30 31 34 28 22 25 26 27 29 23 22 31 28 25 25 23 24 24 24
20 18 16 15 15 16 18 19 21 22 21 22 23 23 23 22 22 26 27 27 28 30 30 28 28 32 36 28 24 27 28 25 33 28 24 26 26 23 21 24 23 23 23
19 19 17 16 15 17 20 19 22 23 24 24 19 18 17 20 20 20 24 27 27 29 27 27 27 25 23 25 24 27 26 27 31 33 22 18 19 21 25 25 23 21 20
19 18 17 14 15 18 19 22 23 21 20 14 12 13 16 18 20 17 19 20 24 22 20 24 25 23 18 25 23 26 24 29 28 24 20 15 16 21 22 23 22 19 18
18 16 15 13 14 16 18 21 19 17 14 11 12 10 11 13 14 14 15 18 16 16 20 21 17 19 19 14 26 26 30 27 22 14 14 17 16 19 23 20 18 15 15
18 16 14 13 14 14 16 18 20 16 14 12 10 11 10 8 2 9 12 14 12 15 11 7 12 10 16 16 22 14 22 17 19 21 18 13 14 15 18 16 14 14 11
17 15 14 13 13 13 15 16 17 15 13 9 7 8 6 5 2 8 11 12 15 12 8 4 6 8 11 15 21 16 17 13 11 10 10 13 14 13 12 12 11 9 9
17 14 13 11 10 11 13 16 17 15 11 7 8 6 5 7 10 6 6 7 12 15 10 6 8 11 10 10 13 13 12 9 9 10 9 9 10 11 12 10 8 7 6
16 13 11 8 8 9 11 14 15 16 11 9 7 8 10 11 8 7 8 9 12 13 11 10 12 12 11 9 11 14 15 14 14 14 14 13 13 12 10 7 5 4 5
14 10 7 6 6 8 9 10 14 14 13 11 12 12 12 13 10 10 9 13 15 14 15 15 13 13 13 12 8 11 16 18 17 17 16 15 12 8 6 5 4 2 3
11 7 4 5 4 6 8 8 10 10 11 12 12 13 14 15 14 12 12 10 12 15 14 17 16 15 17 16 14 14 16 19 17 14 13 10 8 7 5 3 1 2 5
9 5 1 1 2 5 6 6 8 7 8 11 12 12 14 15 14 14 14 13 14 14 17 17 18 18 19 18 18 16 14 14 13 10 8 7 5 5 4 1 2 4 7
7 2 0 2 3 4 5 6 7 9 9 10 10 11 13 13 13 14 13 14 14 16 18 19 19 19 19 17 14 13 12 8 6 5 4 3 4 3 2 3 4 6 9
5 1 2 2 1 3 5 8 10 11 9 9 8 9 11 11 13 13 14 14 15 16 17 18 18 16 13 11 11 7 5 4 4 4 4 4 5 5 6 7 9 11 12
4 2 1 2 2 4 7 9 10 10 9 10 11 11 11 13 14 14 13 13 13 14 15 16 12 10 9 6 4 4 5 4 4 5 6 7 8 9 11 13 14 15 17
6 4 4 4 4 6 8 11 10 9 11 12 13 13 13 14 15 15 14 11 10 11 10 7 6 5 4 4 6 6 5 6 8 9 10 12 13 15 16 18 18 19 21
8 6 6 9 10 10 9 8 11 14 15 16 16 15 13 13 12 11 10 9 8 7 5 3 3 4 8 8 8 9 9 11 13 14 15 16 17 19 20 20 21 22 23
10 8 10 12 12 11 9 10 10 10 11 12 10 9 9 10 9 6 5 4 3 4 4 6 8 9 9 10 11 12 13 15 17 18 19 20 20 21 22 22 22 23 24
14 12 14 12 12 11 9 9 10 9 8 7 7 6 6 4 3 3 3 4 4 5 6 7 8 10 11 13 14 16 17 18 20 21 22 22 22 23 24 24 23 24 26
17 16 15 14 12 12 12 10 7 6 4 4 4 4 4 3 4 4 3 4 5 6 8 10 12 14 15 17 18 18 19 19 19 22 23 24 24 25 26 26 26 26 29
20 20 17 15 15 14 11 8 7 5 2 3 4 5 5 5 5 5 5 6 7 9 10 12 13 15 16 18 19 21 21 21 21 26 22 24 26 26 24 24 24 24 24
23 22 19 16 16 13 10 9 6 3 2 3 4 3 3 4 5 6 7 8 8 9 11 12 14 16 18 21 22 22 22 21 22 23 22 22 21 20 20 20 21 22 21
24 21 19 18 16 13 10 8 5 4 3 3 3 3 4 5 6 7 7 8 9 10 12 14 17 18 18 18 18 19 19 20 20 20 20 20 20 20 19 19 20 21 19
24 20 18 17 16 12 9 6 4 4 4 4 4 5 5 5 5 5 6 8 10 13 15 15 16 17 17 17 18 18 18 19 19 19 19 18 18 17 17 16 14 14 15
24 20 18 18 15 11 8 6 4 5 5 4 4 4 3 3 4 6 9 11 12 13 14 14 14 14 14 15 15 15 16 16 17 17 16 16 15 14 13 12 13 15 16
24 19 19 17 14 10 8 7 6 6 5 4 2 1 2 5 7 8 10 11 11 11 11 12 13 13 13 13 14 15 15 15 15 14 13 13 14 14 16 17 17 18 19
Wind_Direction
330 332 333 335 342 340 330 326 321 310 301 294 288 276 271 272 267 262 249 250 247 242 243 240 243 237 242 247 245 249 244 236 236 245 235 238 230 229 234 239 240 246 248
330 327 330 333 333 331 325 322 324 320 313 299 290 277 275 273 274 261 242 244 245 237 238 240 243 234 238 243 235 244 251 248 235 233 226 235 232 229 231 235 240 242 245
337 337 328 329 333 326 326 328 324 319 318 301 286 277 279 271 270 257 251 250 243 233 231 234 234 234 236 235 239 239 247 233 236 231 221 217 219 224 224 228 234 239 247
342 335 330 325 329 333 334 328 323 322 331 333 295 282 284 281 269 253 248 234 226 228 234 235 231 235 241 241 242 243 241 228 226 219 205 210 218 218 222 232 235 241 246
336 330 329 334 335 333 334 342 341 331 332 340 342 317 306 308 244 242 223 223 220 227 234 220 229 238 236 255 251 236 224 220 216 218 200 212 222 219 222 225 229 234 235
330 323 328 336 336 332 345 352 343 340 334 329 326 329 323 300 350 211 223 218 209 209 227 197 234 240 238 236 238 215 222 214 215 216 206 218 228 220 219 220 220 221 229
330 320 331 333 336 345 355 349 348 352 357 2 7 347 338 284 311 202 204 172 193 187 162 203 190 206 229 225 198 204 188 184 187 193 224 228 227 219 211 207 206 212 227
333 322 330 334 343 358 6 7 12 10 7 6 19 35 49 98 106 116 130 149 162 155 153 191 185 166 163 168 162 169 168 180 196 203 181 182 171 168 172 184 189 202 225
325 327 329 333 344 6 15 16 23 19 27 34 46 77 90 98 75 148 140 140 154 149 146 145 143 149 151 150 175 180 170 162 151 146 144 148 149 150 154 163 187 221 260
326 333 335 345 352 13 21 25 35 34 44 66 78 86 87 95 87 94 142 150 143 138 135 123 117 120 125 118 130 146 142 136 138 139 138 138 140 150 156 161 183 224 295
325 334 351 353 348 22 25 43 51 46 64 84 89 91 96 87 88 93 96 110 126 131 126 128 128 124 121 119 126 132 134 131 131 133 135 137 137 144 150 152 139 337 333
325 323 315 20 17 40 40 54 73 65 78 88 96 95 92 89 88 93 102 113 117 125 128 128 126 124 122 121 122 124 125 128 129 134 139 141 156 162 163 182 304 335 332
337 320 29 96 73 53 57 75 90 87 82 83 88 98 105 107 107 105 106 112 120 130 129 130 129 129 128 129 130 127 124 131 143 151 174 194 178 196 257 285 316 320 326
321 357 89 80 54 78 86 93 97 90 82 81 92 99 99 105 110 116 123 126 128 131 132 132 131 132 133 132 132 136 152 173 184 215 228 229 243 260 273 285 292 299 311
259 228 145 115 105 122 116 111 104 95 82 79 83 87 90 102 103 105 107 115 125 130 133 132 130 133 136 142 163 200 215 221 235 247 255 261 271 277 282 285 286 289 295
225 213 193 155 133 113 137 127 116 109 104 103 103 100 105 107 107 110 106 107 119 129 139 140 141 154 169 213 248 262 261 262 265 267 271 276 280 282 282 283 285 288 290
214 205 183 155 146 133 130 127 125 121 118 116 109 105 103 110 115 117 117 121 132 146 157 215 226 229 261 273 272 272 270 268 269 275 278 280 280 280 282 284 287 292 295
202 191 166 154 144 138 138 132 127 123 130 140 134 128 118 117 121 141 158 168 202 223 245 255 268 273 273 272 272 274 273 274 278 281 282 283 283 284 285 286 288 291 294
194 184 172 166 159 154 151 145 132 120 121 139 159 159 159 163 184 230 242 252 259 262 271 274 276 277 279 281 283 284 285 286 286 287 288 288 286 283 282 284 286 290 294
190 185 179 173 164 153 149 145 136 127 122 158 177 185 209 247 268 279 278 274 278 279 278 277 281 285 287 288 288 290 291 291 294 294 293 291 289 286 286 286 286 288 294
189 181 177 172 163 155 154 167 169 159 180 207 227 241 257 262 273 274 272 276 283 289 295 299 300 300 299 299 298 296 294 292 291 295 291 289 290 293 294 291 290 294 296
183 179 176 174 172 171 172 174 177 202 247 237 244 255 262 268 277 280 280 282 289 295 300 303 306 309 309 308 306 305 304 303 301 299 298 297 297 298 298 298 297 298 302
177 179 178 176 180 183 188 193 215 266 268 264 271 280 278 277 279 283 288 294 299 304 310 312 312 312 313 313 313 312 311 310 309 309 308 307 306 306 304 302 303 306 305
178 178 181 183 185 190 197 216 243 263 251 245 249 255 258 265 278 291 299 307 314 315 315 315 316 316 318 320 320 318 317 317 317 317 315 314 313 313 313 316 321 321 322
177 183 188 187 189 196 201 228 215 235 224 225 232 239 255 284 306 314 315 315 317 318 319 322 326 330 332 334 334 332 329 327 325 324 324 327 329 331 334 338 334 328 326
178 182 182 185 191 198 226 230 190 215 211 212 219 261 303 312 314 316 318 321 326 332 338 340 339 338 339 341 343 343 344 344 346 347 339 344 355 350 337 332 330 326 325